Regional Weather Roundup
Issued by NWS

Home | Current Version | Previous Version | Text Only | Print | Product List | Glossary On
Versions: 1 2 3 4 5 6 7 8 9 10 11 12 13 14 15 16 17 18 19 20 21 22 23 24 25 26 27 28 29 30 31 32 33 34 35 36 37 38 39 40 41 42 43 44 45 46 47 48 49 50
000
ASUS43 KMPX 270510
RWRMN
WEATHER ROUNDUP FOR MINNESOTA
NATIONAL WEATHER SERVICE TWIN CITIES/CHANHASSEN MN
1100 PM CST THU FEB 26 2015


NOTE: "FAIR" INDICATES FEW OR NO CLOUDS BELOW 12,000 FEET WITH NO
SIGNIFICANT WEATHER AND/OR OBSTRUCTIONS TO VISIBILITY. N/A MEANS
CURRENT SKY AND/OR WEATHER CONDITIONS ARE NOT AVAILABLE.

MNZ060>063-068>070-270600-
   Twin Cities Metro

CITY           SKY/WX    TMP DP  RH WIND       PRES   REMARKS
TWIN CITIES    CLEAR      2  -8  63 NW9       30.49S WCI -13
ST PAUL        CLEAR      4  -7  60 NW12      30.51R WCI -12
CRYSTAL        CLEAR      3  -8  60 NW8       30.48S WCI -10
BLAINE         CLEAR      3  -6  66 W8        30.47S WCI -10
EDEN PRAIRIE   FAIR      -2  -9  72 W7        30.48F WCI -15
SOUTH ST PAUL  CLEAR      4  -8  58 W3        30.49S
LAKE ELMO      FAIR       1  -8  66 W6        30.48S WCI -10
$$
MNZ001>005-007-008-013>017-022>024-027-028-270600-
   Northwest Minnesota

CITY           SKY/WX    TMP DP  RH WIND       PRES   REMARKS
BEMIDJI        CLEAR     -8 -12  82 W3        30.40F
HALLOCK        CLEAR     -9 -17  70 SW2       30.46F
ROSEAU         PTCLDY    -2  -8  78 W6        30.42F WCI -14
WARROAD        PTCLDY    -6 -11  77 W6        30.40F WCI -18
THIEF RVR FALL PTCLDY    -8 N/A N/A W3        30.43F
CROOKSTON      CLEAR     -6 -11  77 W6        30.49F WCI -18
FOSSTON        PTCLDY   -15 -20  76 S5        30.44F WCI -27
DETROIT LAKES  PTCLDY     0  -4  85 W8        30.45F WCI -15
MOORHEAD       CLEAR     -2  -8  78 SW3       30.52S
PARK RAPIDS    CLEAR    -10 -15  78 W5        30.41S WCI -22
MAHNOMEN       FAIR      -7 -12  82 CALM      30.45S
$$
MNZ006-009>011-018-025>026-270600-
   North Central Minnesota

CITY           SKY/WX    TMP DP  RH WIND       PRES   REMARKS
BAUDETTE       PTCLDY    -6 -12  75 W6        30.37F WCI -19
FLAG ISLAND    CLEAR     -4 -11  71 NW7       30.38F WCI -18
INTL FALLS     CLEAR     -9 -16  71 W7        30.37F WCI -24
WASKISH        PTCLDY    -8 -11  84 SW7       30.40F WCI -22
BIG FORK       FAIR      -9 -17  70 CALM      30.38F
LONGVILLE      CLEAR    -11 -17  77 W3        30.41F
GRAND RAPIDS   CLEAR     -4 -11  71 W7        30.37F WCI -18
CRANE LAKE     PTCLDY   -20 -26  76 CALM      30.39S
ORR            FAIR      -9 -17  70 CALM      30.34S
COOK           CLEAR     -9 -17  70 SW3       30.37S
WALKER         FAIR      -7 -12  81 W5        30.41S WCI -18
$$
MNZ012-019>021-037-270600-
   Northeast Minnesota

CITY           SKY/WX    TMP DP  RH WIND       PRES   REMARKS
DULUTH         CLEAR     -1 -14  53 NW8       30.35S WCI -15
ELY            CLEAR     -8 -17  65 SW3       30.33F
HIBBING        CLEAR     -3 -13  62 NW6       30.37S WCI -15
EVELETH        CLEAR     -2 -13  60 W6        30.37S WCI -14
DULUTH HARBOR  CLEAR      3 -11  51 CALM      30.45F
TWO HARBORS    CLEAR      1 -11  55 NW5       30.34F WCI  -8
SILVER BAY     CLEAR      3 -13  47 NW8       30.33S WCI -10
GRAND MARAIS     N/A      3 -10  54 VRB3      30.36S
G MARAIS ARPRT PTCLDY    -6 -17  59 NW9G17    30.23S WCI -22
$$
MNZ029>031-032-039>041-046>048-054>057-064-270600-
   West Central Minnesota

CITY           SKY/WX    TMP DP  RH WIND       PRES   REMARKS
FERGUS FALLS   CLEAR     -4 -11  71 NW7       30.53F WCI -18
WHEATON        CLEAR     -8 -13  77 W6        30.55S WCI -21
MORRIS         CLEAR     -6 -11  77 NW9       30.50S WCI -22
ALEXANDRIA     CLEAR     -8 -12  83 W6        30.45F WCI -21
ELBOW LAKE     FAIR      -7 -11  81 NW6       30.48F WCI -20
WADENA         CLEAR     -8 -11  84 W5        30.44S WCI -19
GLENWOOD       CLEAR     -8  -9  92 W7        30.47F WCI -22
APPLETON       FAIR      -9 -15  77 W7        30.53F WCI -24
BENSON         CLEAR     -8 -11  84 CALM      30.51S
ORTONVILLE     CLEAR     -4 -11  71 W8        30.52S WCI -19
MADISON        CLEAR     -8 -13  77 W7        30.54S WCI -22
WILLMAR        FAIR      -4 -11  71 NW6       30.50F WCI -16
$$
MNZ033>034-036-042>043-049>051-058-059-270600-
   Central Minnesota

CITY           SKY/WX    TMP DP  RH WIND       PRES   REMARKS
ST CLOUD       CLEAR      0  -9  65 NW8       30.47S WCI -14
SAUK CENTRE    FAIR      -5 -10  79 W5        30.47F WCI -16
PAYNESVILLE    CLEAR     -7 -11  81 SW3       30.48F
AITKIN         CLEAR     -2 -13  60 CALM      30.42S
PINE RIVER     CLEAR     -9 -15  77 CALM      30.45S
BRAINERD       CLEAR     -4 -13  65 W5        30.44F WCI -15
STAPLES        CLEAR     -9 -13  84 CALM      30.44F
LONG PRAIRIE   FAIR      -4  -9  77 CALM      30.45F
LITTLE FALLS   CLEAR     -2  -9  71 CALM      30.47F
LITCHFIELD     CLEAR      0  -8  71 CALM      30.49S
BUFFALO        CLEAR      1  -8  66 W6        30.50S WCI -10
MAPLE LAKE     CLEAR      1  -6  72 NW6       30.49S WCI -10
$$
MNZ037-044-045-052-053-270600-
   East Central Minnesota

CITY           SKY/WX    TMP DP  RH WIND       PRES   REMARKS
PRINCETON      CLEAR      0  -9  65 W7        30.46S WCI -13
MORA           CLEAR     -9 -17  70 CALM      30.46F
CAMBRIDGE      CLEAR     -2 -11  65 W3        30.45S
RUSH CITY      PTCLDY    -3 -12  65 CALM      30.46S
MOOSE LAKE     CLEAR      0 -13  55 CALM      30.41F
HINCKLEY       FAIR       0  -9  65 CALM      30.44S
CLOQUET        CLEAR     -2 -15  55 W10       30.37F WCI -19
MCGREGOR       CLEAR     -2 -11  65 CALM      30.43S
$$
MNZ071>073-080-081-089-090-097-098-270600-
   Southwest Minnesota

CITY           SKY/WX    TMP DP  RH WIND       PRES   REMARKS
MONTEVIDEO     CLEAR     -6  -9  84 NW6       30.54S WCI -18
GRANITE FALLS  CLEAR    -10 -14  79 W7        30.54F WCI -24
CANBY          CLEAR     -6 -12  76 W5        30.53F WCI -17
MARSHALL       CLEAR     -8 -15  71 W9        30.52S WCI -25
REDWOOD FALLS  CLEAR     -6 -11  79 W8        30.52F WCI -21
OLIVIA         CLEAR     -6  -9  84 NW5       30.51F WCI -17
PIPESTONE      PTCLDY    -6  -9  84 N8        30.46F WCI -21
WINDOM         CLEAR     -6  -9  84 NW8       30.48F WCI -21
WORTHINGTON    CLEAR     21 -20  15 NW8       30.49F WCI  12
JACKSON        CLEAR     -6 -11  77 NW7       30.48F WCI -20
TRACY          CLEAR     -3  -8  76 W7        30.50S WCI -16
SLAYTON        CLEAR    -11 -16  76 CALM      30.47F
$$
MNZ065>067-074>077-082>085-091>093-270600-
   South Central Minnesota

CITY           SKY/WX    TMP DP  RH WIND       PRES   REMARKS
MANKATO        CLEAR     -4 -11  71 W5        30.49F WCI -15
NEW ULM        CLEAR     -9 -15  77 W9        30.51F WCI -27
ST JAMES       CLEAR     -2  -9  71 W12       30.52F WCI -20
FAIRMONT       CLEAR     -4 -11  71 NW8       30.48S WCI -19
GLENCOE        CLEAR     -4  -9  80 W5        30.49F WCI -15
FARIBAULT      CLEAR     -4  -9  77 W6        30.48F WCI -16
OWATONNA       CLEAR     -8 -11  84 CALM      30.48S
WASECA         CLEAR    -11 -17  77 W3        30.50S HAZE
ALBERT LEA     CLEAR     -8 -11  84 W5        30.47S WCI -19
$$
MNZ078>079-086>088-094>096-270600-
   Southeast Minnesota

CITY           SKY/WX    TMP DP  RH WIND       PRES   REMARKS
ROCHESTER      CLEAR     -8 -13  78 W12       30.44S WCI -27
RED WING       CLEAR     -4 -11  71 NW5       30.48S WCI -15
STANTON        CLEAR     -2  -9  72 W6        30.48S WCI -14
DODGE CENTER   PTCLDY    -4  -9  77 W12       30.44S WCI -22
WINONA         CLEAR     -2  -9  71 CALM      30.50F
AUSTIN         CLEAR     -6  -9  84 NW8       30.46S WCI -21
PRESTON        FAIR      -7 -13  76 NW10      30.45S WCI -25
$$
ABBREVIATIONS USED IN REMARKS
   TC - TEMPERATURES IN CELSIUS
  WCI - WIND CHILL INDEX
   HX - HEAT INDEX
  VSB - VISIBILITY
$$


USA.gov is the U.S. government's official web portal to all federal, state and local government web resources and services.